This demonstration page uses our WeatherBlox Daily Observations layout. Learn more.

39.01783, -85.05884

Hourly Observations for August 15, 2020

Temp ( °F °C ) Dew Point ( °F °C ) Humidity (%) Winds ( mph kmh ) Pressure ( in mb ) Visibility ( mi km ) Precip ( " mm )
12:52 am 00:52 Mostly Cloudy 72 22.2 65 18.3 79 79 ENE 8 13 29.92 1013 10 16.0934 0 0
1:52 am 01:52 Mostly Cloudy 71 21.7 65 18.3 81 81 ENE 8 13 29.91 1013 10 16.0934 0 0
2:52 am 02:52 Mostly Cloudy 71 21.7 65 18.3 81 81 ENE 8 13 29.89 1012 10 16.0934 0 0
3:52 am 03:52 Mostly Cloudy 71 21.7 65 18.3 81 81 NE 7 11 29.88 1012 10 16.0934 0 0
4:52 am 04:52 Partly Cloudy 68 20 65 18.3 90 90 NW 3 6 29.89 1012 10 16.0934 0 0
5:52 am 05:52 Partly Cloudy 68 20 65 18.3 90 90 N 9 15 29.9 1013 10 16.0934 0 0
6:52 am 06:52 Mostly Cloudy 69 20.6 65 18.3 87 87 NNE 9 15 29.91 1013 10 16.0934 0 0
7:52 am 07:52 Mostly Cloudy 71 21.7 65 18.3 81 81 NNE 7 11 29.91 1013 10 16.0934 0 0
8:52 am 08:52 Cloudy 71 21.7 65 18.3 81 81 NNW 10 17 29.93 1013 10 16.0934 0 0
9:52 am 09:52 Mostly Cloudy 73 22.8 65 18.3 76 76 NNW 9 15 29.93 1013 10 16.0934 0 0
10:52 am 10:52 Partly Cloudy 76 24.4 66 18.9 72 72 NW 7 11 29.92 1013 10 16.0934 0 0
11:52 am 11:52 Mostly Sunny 79 26.1 66 18.9 65 65 Calm 29.92 1013 10 16.0934 0 0
12:52 pm 12:52 Mostly Sunny 82 27.8 65 18.3 56 56 NNE 8 13 29.92 1013 10 16.0934 0 0
1:52 pm 13:52 Partly Cloudy 84 28.9 65 18.3 53 53 NNW 12 19 29.91 1013 10 16.0934 0 0
2:52 pm 14:52 Partly Cloudy 85 29.4 65 18.3 51 51 N 8 13 29.9 1012 10 16.0934 0 0
3:52 pm 15:52 Partly Cloudy 87 30.6 66 18.9 50 50 N 10 17 29.88 1012 10 16.0934 0 0
4:52 pm 16:52 Partly Cloudy 87 30.6 65 18.3 48 48 NNW 8 13 29.86 1011 10 16.0934 0 0
5:52 pm 17:52 Partly Cloudy 87 30.6 66 18.9 50 50 NNW 12 19 29.86 1011 10 16.0934 0 0
6:52 pm 18:52 Partly Cloudy 86 30 66 18.9 51 51 NNW 8 13 29.86 1011 10 16.0934 0 0
7:19 pm 19:19 Mostly Cloudy with Thunderstorms 85 29.4 66 18.9 53 53 NNW 10 17 29.84 1010 10 16.0934 0 0
7:36 pm 19:36 Mostly Cloudy with Nearby Thunderstorms 85 29.4 66 18.9 53 53 VRB 7 11 29.85 1011 10 16.0934 0 0
7:52 pm 19:52 Mostly Cloudy 81 27.2 66 18.9 61 61 SE 13 20 29.87 1012 10 16.0934 0 0
8:52 pm 20:52 Mostly Cloudy 77 25 64 17.8 64 64 S 3 6 29.88 1012 10 16.0934 0 0
9:52 pm 21:52 Mostly Cloudy 78 25.6 64 17.8 62 62 S 3 6 29.91 1013 10 16.0934 0 0
10:52 pm 22:52 Mostly Cloudy 74 23.3 64 17.8 71 71 S 3 6 29.92 1013 10 16.0934 0 0
11:52 pm 23:52 Mostly Clear 74 23.3 64 17.8 71 71 S 5 7 29.92 1013 10 16.0934 0 0

Powered by AerisWeather